User: anonymous   Login
Location: Albany
(35.0000°S, 118.0000°E)
Time: 03:41:53
(UTC-04:00)
Language:

TRMM - Orbit

View from above orbital plane
View from above orbital plane
View from above satellite
View from above satellite

Ground track
Ground track

The orbit data is extracted from the following two-line orbital elements,

1 25063U 97074A   14302.52846951  .00044549  00000-0  50235-3 0  7883
2 25063 034.9551 329.3774 0003121 185.5733 302.2864 15.61413483965651
Epoch (UTC): 29 October 2014 12:40:59
Eccentricity: 0.0003121
inclination: 34.9551°
perigee height: 381 km
apogee height: 385 km
right ascension of ascending node: 329.3774°
argument of perigee: 185.5733°
revolutions per day: 15.61413483
mean anomaly at epoch: 302.2864°
orbit number at epoch: 96565

The dashed part of the orbit path shows where the satellite is in the earth's shadow,  

DLR